Home > Time Zones > World Clock > Weather > China > Wuhan > Past weeks

Flag for China Weather past 2 weeks in Wuhan, Hubei, China

Now
90 °F

Sunny.


Feels Like: 98 °F
Forecast: 81 / 94 °F
Wind: 17 mph from Southwest

Location: Wuhan Airport

Current Time: Jul 31, 2015 at 9:40:46 AM

Latest Report: Jul 31, 2015 at 9:00 AM


Visibility: 10 mi

Pressure: 29.74 "Hg

Humidity: 59%

Dew point: 73 °F

Location of WuhanLocation

Historic Weather in Wuhan — Graph

°F

Wuhan temperature yesterday

Maximum temperature yesterday: 95 °F (at 4:00 PM)
Minimum temperature yesterday: 84 °F (at 3:00 AM)
Average temperature yesterday: 89 °F

Past Weeks' High & Low Weather Summary

 TemperatureHumidityPressure
High95 °F (Jul 28, 4:00 PM)100% (Jul 16, 8:00 AM)29.77 "Hg (Jul 16, 8:00 AM)
Low70 °F (Jul 16, 8:00 AM)53% (Jul 28, 4:00 PM)29.56 "Hg (Jul 16, 8:00 AM)
Average83 °F79%29.66 "Hg
* Reported Jul 16 8:00 AM — Jul 31 8:00 AM, Wuhan, Weather by CustomWeather, © 2015

Note: Actual official high and low records may vary slightly from our data, if they occured in-between our weather recording intervals... More about our weather records

Advertising

Wuhan weather history for previous 24 hours

 ConditionsComfort  
Time TempWeatherWind HumidityBarometerVisibility
8:00 AM
Fri, Jul 31
88 °FSunny.15 mph62%29.71 "Hg10 mi
7:00 AM86 °FSunny.13 mph66%29.71 "Hg10 mi
6:00 AM84 °FSunny.13 mph70%29.68 "Hg10 mi
5:00 AM84 °FClear.13 mph70%29.68 "Hg10 mi
4:00 AM84 °FClear.10 mph70%29.68 "Hg10 mi
3:00 AM86 °FClear.13 mph66%29.68 "Hg10 mi
2:00 AM86 °FClear.13 mph66%29.68 "Hg10 mi
1:00 AM86 °FClear.10 mph66%29.68 "Hg10 mi
12:00 AM86 °FClear.10 mph66%29.71 "Hg10 mi
11:00 PM
Thu, Jul 30
86 °FClear.10 mph66%29.71 "Hg10 mi
10:00 PM88 °FClear.8 mph62%29.71 "Hg10 mi
9:00 PM88 °FClear.8 mph66%29.68 "Hg10 mi
8:00 PM88 °FClear.8 mph66%29.68 "Hg10 mi
7:00 PM90 °FPassing clouds.8 mph63%29.68 "HgN/A
6:00 PM91 °FPassing clouds.13 mph59%29.65 "HgN/A
5:00 PM93 °FScattered clouds.13 mph53%29.65 "HgN/A
4:00 PM95 °FScattered clouds.13 mph53%29.68 "HgN/A
3:00 PM93 °FScattered clouds.10 mph59%29.68 "HgN/A
2:00 PM93 °FPassing clouds.17 mph56%29.68 "HgN/A
1:00 PM93 °FPassing clouds.15 mph53%29.71 "HgN/A
12:00 PM93 °FPassing clouds.15 mph56%29.71 "HgN/A
11:00 AM91 °FSunny.15 mph56%29.74 "Hg10 mi
10:00 AM90 °FSunny.15 mph59%29.74 "Hg10 mi
9:00 AM90 °FSunny.13 mph59%29.74 "Hg10 mi
Weather by CustomWeather, © 2015

See weather overviewHow to use our weather pages